Time,TemperatureF,DewpointF,PressureIn,WindDirection,WindDirectionDegrees,WindSpeedMPH,WindSpeedGustMPH,Humidity,HourlyPrecipIn,Conditions,Clouds,dailyrainin,SolarRadiationWatts/m^2,SoftwareType,DateUTC
2013-05-21 00:01:00,70.3,66.9,29.92,South,184,0.0,0.0,89,0.00,,,0.00,0.00,VWS V14.01,2013-05-21 04:01:00,
2013-05-21 00:02:00,70.3,66.9,29.93,South,184,0.0,0.0,89,0.00,,,0.00,0.00,VWS V14.01,2013-05-21 04:02:00,
2013-05-21 00:07:00,70.1,66.7,29.93,South,184,0.0,0.0,89,0.00,,,0.00,0.00,VWS V14.01,2013-05-21 04:07:00,
2013-05-21 00:12:00,70.0,66.6,29.93,South,184,0.0,0.0,89,0.00,,,0.00,0.00,VWS V14.01,2013-05-21 04:12:00,
2013-05-21 00:17:00,69.9,66.8,29.92,South,184,0.0,0.0,90,0.00,,,0.00,0.00,VWS V14.01,2013-05-21 04:17:00,
2013-05-21 00:22:00,69.7,66.6,29.92,South,184,0.0,0.0,90,0.00,,,0.00,0.00,VWS V14.01,2013-05-21 04:22:00,
2013-05-21 00:27:00,69.5,66.1,29.92,South,184,0.0,0.0,89,0.00,,,0.00,0.00,VWS V14.01,2013-05-21 04:27:00,
2013-05-21 00:32:00,69.3,66.2,29.92,South,184,0.0,0.0,90,0.00,,,0.00,0.00,VWS V14.01,2013-05-21 04:32:00,
2013-05-21 00:37:00,69.3,66.2,29.93,South,184,0.0,0.0,90,0.00,,,0.00,0.00,VWS V14.01,2013-05-21 04:37:00,
2013-05-21 00:42:00,69.2,66.5,29.93,South,184,0.0,0.0,91,0.00,,,0.00,0.00,VWS V14.01,2013-05-21 04:42:00,
2013-05-21 00:47:00,69.0,66.3,29.93,South,184,0.0,0.0,91,0.00,,,0.00,0.00,VWS V14.01,2013-05-21 04:47:00,
2013-05-21 00:53:00,68.8,66.1,29.93,South,184,0.0,0.0,91,0.00,,,0.00,0.00,VWS V14.01,2013-05-21 04:53:00,
2013-05-21 00:58:00,68.6,65.9,29.93,South,184,0.0,0.0,91,0.00,,,0.00,0.00,VWS V14.01,2013-05-21 04:58:00,
2013-05-21 01:03:00,68.5,66.1,29.92,South,184,0.0,0.0,92,0.00,,,0.00,0.00,VWS V14.01,2013-05-21 05:03:00,
2013-05-21 01:08:00,68.4,66.0,29.92,South,184,0.0,0.0,92,0.00,,,0.00,0.00,VWS V14.01,2013-05-21 05:08:00,
2013-05-21 01:13:00,68.3,65.9,29.92,South,184,0.0,0.0,92,0.00,,,0.00,0.00,VWS V14.01,2013-05-21 05:13:00,
2013-05-21 01:18:00,68.2,66.1,29.92,South,184,0.0,0.0,93,0.00,,,0.00,0.00,VWS V14.01,2013-05-21 05:18:00,
2013-05-21 01:23:00,68.1,66.0,29.92,South,184,0.0,0.0,93,0.00,,,0.00,0.00,VWS V14.01,2013-05-21 05:23:00,
2013-05-21 01:28:00,68.0,65.9,29.92,South,184,0.0,0.0,93,0.00,,,0.00,0.00,VWS V14.01,2013-05-21 05:28:00,
2013-05-21 01:33:00,67.9,65.8,29.91,South,184,0.0,0.0,93,0.00,,,0.00,0.00,VWS V14.01,2013-05-21 05:33:00,
2013-05-21 01:38:00,67.8,65.7,29.91,South,184,0.0,0.0,93,0.00,,,0.00,0.00,VWS V14.01,2013-05-21 05:38:00,
2013-05-21 01:44:00,67.7,65.6,29.92,South,184,0.0,0.0,93,0.00,,,0.00,0.00,VWS V14.01,2013-05-21 05:44:00,
2013-05-21 01:49:00,67.5,65.4,29.92,South,184,0.0,0.0,93,0.00,,,0.00,0.00,VWS V14.01,2013-05-21 05:49:00,
2013-05-21 01:54:00,67.4,65.3,29.92,South,184,0.0,0.0,93,0.00,,,0.00,0.00,VWS V14.01,2013-05-21 05:54:00,
2013-05-21 01:59:00,67.3,65.5,29.92,South,184,0.0,0.0,94,0.00,,,0.00,0.00,VWS V14.01,2013-05-21 05:59:00,
2013-05-21 02:04:00,67.2,65.4,29.92,South,184,0.0,0.0,94,0.00,,,0.00,0.00,VWS V14.01,2013-05-21 06:04:00,
2013-05-21 02:09:00,67.2,65.4,29.92,SSW,192,1.0,3.0,94,0.00,,,0.00,0.00,VWS V14.01,2013-05-21 06:09:00,
2013-05-21 02:14:00,67.2,65.4,29.92,SSW,198,0.0,3.0,94,0.00,,,0.00,0.00,VWS V14.01,2013-05-21 06:14:00,
2013-05-21 02:19:00,67.2,65.7,29.92,SSW,194,0.0,1.0,95,0.00,,,0.00,0.00,VWS V14.01,2013-05-21 06:19:00,
2013-05-21 02:24:00,67.2,65.7,29.92,SSW,202,0.0,4.0,95,0.00,,,0.00,0.00,VWS V14.01,2013-05-21 06:24:00,
2013-05-21 02:29:00,67.2,65.7,29.91,SSW,209,0.0,1.0,95,0.00,,,0.00,0.00,VWS V14.01,2013-05-21 06:29:00,
2013-05-21 02:34:00,67.1,65.6,29.91,SSW,209,0.0,0.0,95,0.00,,,0.00,0.00,VWS V14.01,2013-05-21 06:34:00,
2013-05-21 02:39:00,67.0,65.5,29.91,SSW,209,0.0,1.0,95,0.00,,,0.00,0.00,VWS V14.01,2013-05-21 06:39:00,
2013-05-21 02:44:00,66.9,65.4,29.91,SSW,207,0.0,2.0,95,0.00,,,0.00,0.00,VWS V14.01,2013-05-21 06:44:00,
2013-05-21 02:50:00,66.9,65.4,29.91,SSW,207,0.0,0.0,95,0.00,,,0.00,0.00,VWS V14.01,2013-05-21 06:50:00,
2013-05-21 02:55:00,66.9,65.4,29.91,SSW,207,0.0,1.0,95,0.00,,,0.00,0.00,VWS V14.01,2013-05-21 06:55:00,
2013-05-21 03:00:00,66.9,65.4,29.91,SSW,208,0.0,1.0,95,0.00,,,0.00,0.00,VWS V14.01,2013-05-21 07:00:00,
2013-05-21 03:05:00,66.9,65.4,29.91,SSW,206,0.0,2.0,95,0.00,,,0.00,0.00,VWS V14.01,2013-05-21 07:05:00,
2013-05-21 03:10:00,66.9,65.4,29.91,SSW,207,0.0,1.0,95,0.00,,,0.00,0.00,VWS V14.01,2013-05-21 07:10:00,
2013-05-21 03:15:00,66.9,65.7,29.91,SSW,206,0.0,1.0,96,0.00,,,0.00,0.00,VWS V14.01,2013-05-21 07:15:00,
2013-05-21 03:20:00,66.9,65.7,29.91,SSW,207,0.0,1.0,96,0.00,,,0.00,0.00,VWS V14.01,2013-05-21 07:20:00,
2013-05-21 03:25:00,66.9,65.7,29.91,SSW,206,0.0,1.0,96,0.00,,,0.00,0.00,VWS V14.01,2013-05-21 07:25:00,
2013-05-21 03:30:00,66.8,65.3,29.91,SSW,207,0.0,1.0,95,0.00,,,0.00,0.00,VWS V14.01,2013-05-21 07:30:00,
2013-05-21 03:35:00,66.8,65.6,29.90,SSW,206,0.0,1.0,96,0.00,,,0.00,0.00,VWS V14.01,2013-05-21 07:35:00,
2013-05-21 03:40:00,66.7,65.5,29.90,SSW,207,0.0,0.0,96,0.00,,,0.00,0.00,VWS V14.01,2013-05-21 07:40:00,
2013-05-21 03:45:00,66.7,65.5,29.90,SSW,206,0.0,0.0,96,0.00,,,0.00,0.00,VWS V14.01,2013-05-21 07:45:00,
2013-05-21 03:51:00,66.6,65.4,29.90,SSW,207,0.0,0.0,96,0.00,,,0.00,0.00,VWS V14.01,2013-05-21 07:51:00,
2013-05-21 03:56:00,66.6,65.4,29.90,SSW,207,0.0,0.0,96,0.00,,,0.00,0.00,VWS V14.01,2013-05-21 07:56:00,
2013-05-21 04:01:00,66.5,65.3,29.90,SSW,207,0.0,0.0,96,0.00,,,0.00,0.00,VWS V14.01,2013-05-21 08:01:00,
2013-05-21 04:06:00,66.5,65.3,29.90,SSW,206,0.0,0.0,96,0.00,,,0.00,0.00,VWS V14.01,2013-05-21 08:06:00,
2013-05-21 04:11:00,66.4,65.2,29.90,SSW,207,0.0,0.0,96,0.00,,,0.00,0.00,VWS V14.01,2013-05-21 08:11:00,
2013-05-21 04:16:00,66.3,65.1,29.90,SSW,207,0.0,0.0,96,0.00,,,0.00,0.00,VWS V14.01,2013-05-21 08:16:00,
2013-05-21 04:21:00,66.2,65.0,29.91,SSW,207,0.0,0.0,96,0.00,,,0.00,0.00,VWS V14.01,2013-05-21 08:21:00,
2013-05-21 04:26:00,66.1,64.9,29.91,SSW,206,0.0,0.0,96,0.00,,,0.00,0.00,VWS V14.01,2013-05-21 08:26:00,
2013-05-21 04:31:00,66.0,64.8,29.91,SSW,206,0.0,0.0,96,0.00,,,0.00,0.00,VWS V14.01,2013-05-21 08:31:00,
2013-05-21 04:36:00,65.8,64.6,29.91,SSW,207,0.0,0.0,96,0.00,,,0.00,0.00,VWS V14.01,2013-05-21 08:36:00,
2013-05-21 04:41:00,65.7,64.5,29.91,SSW,206,0.0,0.0,96,0.00,,,0.00,0.00,VWS V14.01,2013-05-21 08:41:00,
2013-05-21 04:46:00,65.7,64.5,29.91,SSW,207,0.0,0.0,96,0.00,,,0.00,0.00,VWS V14.01,2013-05-21 08:46:00,
2013-05-21 04:52:00,65.6,64.4,29.91,SSW,206,0.0,0.0,96,0.00,,,0.00,0.00,VWS V14.01,2013-05-21 08:52:00,
2013-05-21 04:57:00,65.5,64.3,29.91,SSW,206,0.0,0.0,96,0.00,,,0.00,0.00,VWS V14.01,2013-05-21 08:57:00,
2013-05-21 05:02:00,65.5,64.3,29.91,SSW,206,0.0,1.0,96,0.00,,,0.00,0.00,VWS V14.01,2013-05-21 09:02:00,
2013-05-21 05:07:00,65.5,64.3,29.91,SSW,207,0.0,0.0,96,0.00,,,0.00,0.00,VWS V14.01,2013-05-21 09:07:00,
2013-05-21 05:12:00,65.4,64.2,29.91,SSW,206,0.0,2.0,96,0.00,,,0.00,0.00,VWS V14.01,2013-05-21 09:12:00,
2013-05-21 05:17:00,65.4,64.2,29.92,SSW,206,0.0,1.0,96,0.00,,,0.00,0.00,VWS V14.01,2013-05-21 09:17:00,
2013-05-21 05:22:00,65.3,64.4,29.91,SSW,205,3.0,3.0,97,0.00,,,0.00,0.00,VWS V14.01,2013-05-21 09:22:00,
2013-05-21 05:27:00,65.3,64.4,29.92,SSW,202,0.0,0.0,97,0.00,,,0.00,0.00,VWS V14.01,2013-05-21 09:27:00,
2013-05-21 05:32:00,65.2,64.3,29.92,SSW,202,0.0,0.0,97,0.00,,,0.00,0.00,VWS V14.01,2013-05-21 09:32:00,
2013-05-21 05:37:00,65.1,64.2,29.93,SSW,202,0.0,0.0,97,0.00,,,0.00,0.00,VWS V14.01,2013-05-21 09:37:00,
2013-05-21 05:42:00,65.1,64.2,29.93,SSW,202,0.0,0.0,97,0.00,,,0.00,0.00,VWS V14.01,2013-05-21 09:42:00,
2013-05-21 05:47:00,65.1,64.2,29.93,SSW,202,0.0,0.0,97,0.00,,,0.00,0.00,VWS V14.01,2013-05-21 09:47:00,
2013-05-21 05:52:00,65.0,64.1,29.94,SSW,202,0.0,0.0,97,0.00,,,0.00,0.00,VWS V14.01,2013-05-21 09:52:00,
2013-05-21 05:58:00,64.9,64.0,29.94,SSW,202,0.0,0.0,97,0.00,,,0.00,5.00,VWS V14.01,2013-05-21 09:58:00,
2013-05-21 06:03:00,64.9,64.0,29.94,SSW,202,0.0,0.0,97,0.00,,,0.00,7.00,VWS V14.01,2013-05-21 10:03:00,
2013-05-21 06:08:00,64.9,64.0,29.94,SSW,202,0.0,0.0,97,0.00,,,0.00,11.00,VWS V14.01,2013-05-21 10:08:00,
2013-05-21 06:13:00,64.9,64.0,29.94,SSW,202,0.0,0.0,97,0.00,,,0.00,12.00,VWS V14.01,2013-05-21 10:13:00,
2013-05-21 06:18:00,64.8,63.9,29.94,SSW,202,0.0,0.0,97,0.00,,,0.00,12.00,VWS V14.01,2013-05-21 10:18:00,
2013-05-21 06:23:00,64.7,63.8,29.94,SSW,202,0.0,0.0,97,0.00,,,0.00,12.00,VWS V14.01,2013-05-21 10:23:00,
2013-05-21 06:28:00,64.7,63.8,29.94,SSW,202,0.0,0.0,97,0.00,,,0.00,16.00,VWS V14.01,2013-05-21 10:28:00,
2013-05-21 06:33:00,64.7,63.8,29.94,SSW,202,0.0,0.0,97,0.00,,,0.00,18.00,VWS V14.01,2013-05-21 10:33:00,
2013-05-21 06:38:00,64.7,63.8,29.94,SSW,202,0.0,0.0,97,0.00,,,0.00,19.00,VWS V14.01,2013-05-21 10:38:00,
2013-05-21 06:43:00,64.8,64.2,29.94,SSW,202,0.0,1.0,98,0.00,,,0.00,26.00,VWS V14.01,2013-05-21 10:43:00,
2013-05-21 06:49:00,64.8,64.2,29.94,SSW,202,0.0,0.0,98,0.00,,,0.00,35.00,VWS V14.01,2013-05-21 10:49:00,
2013-05-21 06:54:00,64.8,64.2,29.93,SSW,202,0.0,1.0,98,0.00,,,0.00,37.00,VWS V14.01,2013-05-21 10:54:00,
2013-05-21 06:59:00,64.9,64.3,29.93,South,176,2.0,3.0,98,0.00,,,0.00,42.00,VWS V14.01,2013-05-21 10:59:00,
2013-05-21 07:04:00,65.0,64.4,29.93,SSW,205,2.0,3.0,98,0.00,,,0.00,44.00,VWS V14.01,2013-05-21 11:04:00,
2013-05-21 07:09:00,65.2,64.6,29.94,SSW,200,0.0,5.0,98,0.00,,,0.00,47.00,VWS V14.01,2013-05-21 11:09:00,
2013-05-21 07:14:00,65.3,64.7,29.94,SSW,200,2.0,5.0,98,0.00,,,0.00,60.00,VWS V14.01,2013-05-21 11:14:00,
2013-05-21 07:19:00,65.4,64.8,29.94,SSW,201,0.0,5.0,98,0.00,,,0.00,114.00,VWS V14.01,2013-05-21 11:19:00,
2013-05-21 07:24:00,65.4,64.8,29.93,SSW,192,1.0,7.0,98,0.00,,,0.00,167.00,VWS V14.01,2013-05-21 11:24:00,
2013-05-21 07:29:00,65.6,65.0,29.94,SSW,199,2.0,4.0,98,0.00,,,0.00,181.00,VWS V14.01,2013-05-21 11:29:00,
2013-05-21 07:34:00,65.7,65.1,29.93,SSW,213,4.0,7.0,98,0.00,,,0.00,195.00,VWS V14.01,2013-05-21 11:34:00,
2013-05-21 07:39:00,65.9,65.3,29.93,South,183,0.0,6.0,98,0.00,,,0.00,209.00,VWS V14.01,2013-05-21 11:39:00,
2013-05-21 07:45:00,66.2,65.6,29.94,SSW,202,2.0,6.0,98,0.00,,,0.00,225.00,VWS V14.01,2013-05-21 11:45:00,
2013-05-21 07:50:00,66.5,65.9,29.94,South,180,1.0,6.0,98,0.00,,,0.00,234.00,VWS V14.01,2013-05-21 11:50:00,
2013-05-21 07:55:00,66.8,65.9,29.94,South,178,1.0,4.0,97,0.00,,,0.00,234.00,VWS V14.01,2013-05-21 11:55:00,
2013-05-21 08:00:00,67.2,66.3,29.94,SW,215,4.0,5.0,97,0.00,,,0.00,230.00,VWS V14.01,2013-05-21 12:00:00,
2013-05-21 08:05:00,67.7,66.8,29.94,SSW,198,0.0,5.0,97,0.00,,,0.00,221.00,VWS V14.01,2013-05-21 12:05:00,
2013-05-21 08:10:00,68.3,67.1,29.94,South,189,1.0,6.0,96,0.00,,,0.00,200.00,VWS V14.01,2013-05-21 12:10:00,
2013-05-21 08:15:00,69.0,67.5,29.95,South,191,0.0,3.0,95,0.00,,,0.00,197.00,VWS V14.01,2013-05-21 12:15:00,
2013-05-21 08:20:00,69.5,67.7,29.94,South,183,1.0,5.0,94,0.00,,,0.00,179.00,VWS V14.01,2013-05-21 12:20:00,
2013-05-21 08:25:00,69.7,67.3,29.94,SSW,207,0.0,3.0,92,0.00,,,0.00,193.00,VWS V14.01,2013-05-21 12:25:00,
2013-05-21 08:30:00,70.2,67.4,29.94,South,176,0.0,5.0,91,0.00,,,0.00,250.00,VWS V14.01,2013-05-21 12:30:00,
2013-05-21 08:35:00,70.8,67.4,29.95,SSW,202,2.0,5.0,89,0.00,,,0.00,441.00,VWS V14.01,2013-05-21 12:35:00,
2013-05-21 08:40:00,71.2,67.5,29.95,SSW,200,0.0,7.0,88,0.00,,,0.00,308.00,VWS V14.01,2013-05-21 12:40:00,
2013-05-21 08:45:00,71.5,67.4,29.95,SSW,205,1.0,6.0,87,0.00,,,0.00,204.00,VWS V14.01,2013-05-21 12:45:00,
2013-05-21 08:50:00,71.6,67.5,29.95,South,188,0.0,4.0,87,0.00,,,0.00,211.00,VWS V14.01,2013-05-21 12:50:00,
2013-05-21 08:55:00,71.9,67.8,29.94,South,186,0.0,1.0,87,0.00,,,0.00,341.00,VWS V14.01,2013-05-21 12:55:00,
2013-05-21 09:00:00,72.2,67.4,29.94,SSW,210,0.0,5.0,85,0.00,,,0.00,359.00,VWS V14.01,2013-05-21 13:00:00,
2013-05-21 09:05:00,72.6,67.5,29.93,SSW,211,2.0,2.0,84,0.00,,,0.00,374.00,VWS V14.01,2013-05-21 13:05:00,
2013-05-21 09:11:00,72.7,67.6,29.93,SSE,165,3.0,3.0,84,0.00,,,0.00,394.00,VWS V14.01,2013-05-21 13:11:00,
2013-05-21 09:16:00,72.8,67.7,29.93,South,188,1.0,5.0,84,0.00,,,0.00,404.00,VWS V14.01,2013-05-21 13:16:00,
2013-05-21 09:21:00,73.1,68.0,29.93,WSW,237,0.0,1.0,84,0.00,,,0.00,408.00,VWS V14.01,2013-05-21 13:21:00,
2013-05-21 09:26:00,73.6,68.5,29.93,SSW,201,2.0,6.0,84,0.00,,,0.00,408.00,VWS V14.01,2013-05-21 13:26:00,
2013-05-21 09:31:00,73.7,67.9,29.93,SSW,202,4.0,5.0,82,0.00,,,0.00,415.00,VWS V14.01,2013-05-21 13:31:00,
2013-05-21 09:36:00,73.9,68.8,29.93,South,191,1.0,6.0,84,0.00,,,0.00,422.00,VWS V14.01,2013-05-21 13:36:00,
2013-05-21 09:41:00,74.2,68.4,29.93,South,188,0.0,2.0,82,0.00,,,0.00,432.00,VWS V14.01,2013-05-21 13:41:00,
2013-05-21 09:46:00,74.4,68.6,29.93,SSW,198,0.0,4.0,82,0.00,,,0.00,439.00,VWS V14.01,2013-05-21 13:46:00,
2013-05-21 09:51:00,74.9,69.0,29.93,SSW,195,4.0,4.0,82,0.00,,,0.00,450.00,VWS V14.01,2013-05-21 13:51:00,
2013-05-21 09:56:00,75.2,69.3,29.93,SSW,192,0.0,3.0,82,0.00,,,0.00,461.00,VWS V14.01,2013-05-21 13:56:00,
2013-05-21 10:02:00,75.6,69.4,29.93,WSW,238,1.0,2.0,81,0.00,,,0.00,475.00,VWS V14.01,2013-05-21 14:02:00,
2013-05-21 10:07:00,76.0,69.4,29.93,SSW,203,3.0,4.0,80,0.00,,,0.00,492.00,VWS V14.01,2013-05-21 14:07:00,
2013-05-21 10:12:00,76.2,69.9,29.93,SSW,192,0.0,5.0,81,0.00,,,0.00,522.00,VWS V14.01,2013-05-21 14:12:00,
2013-05-21 10:17:00,76.6,70.0,29.93,SSW,200,1.0,3.0,80,0.00,,,0.00,552.00,VWS V14.01,2013-05-21 14:17:00,
2013-05-21 10:22:00,76.7,69.3,29.93,South,171,3.0,5.0,78,0.00,,,0.00,575.00,VWS V14.01,2013-05-21 14:22:00,
2013-05-21 10:27:00,76.9,69.5,29.93,WSW,242,2.0,4.0,78,0.00,,,0.00,592.00,VWS V14.01,2013-05-21 14:27:00,
2013-05-21 10:32:00,77.2,70.2,29.93,South,188,0.0,3.0,79,0.00,,,0.00,599.00,VWS V14.01,2013-05-21 14:32:00,
2013-05-21 10:37:00,77.5,69.7,29.93,SSE,164,2.0,5.0,77,0.00,,,0.00,592.00,VWS V14.01,2013-05-21 14:37:00,
2013-05-21 10:42:00,77.7,69.5,29.93,South,186,0.0,4.0,76,0.00,,,0.00,578.00,VWS V14.01,2013-05-21 14:42:00,
2013-05-21 10:47:00,77.8,70.0,29.92,South,171,3.0,5.0,77,0.00,,,0.00,570.00,VWS V14.01,2013-05-21 14:47:00,
2013-05-21 10:53:00,77.9,69.3,29.93,South,173,1.0,4.0,75,0.00,,,0.00,563.00,VWS V14.01,2013-05-21 14:53:00,
2013-05-21 10:58:00,78.1,70.3,29.92,SSE,147,0.0,5.0,77,0.00,,,0.00,563.00,VWS V14.01,2013-05-21 14:58:00,
2013-05-21 11:03:00,78.5,70.3,29.92,SSW,192,0.0,5.0,76,0.00,,,0.00,564.00,VWS V14.01,2013-05-21 15:03:00,
2013-05-21 11:08:00,78.9,70.3,29.92,SSE,165,3.0,8.0,75,0.00,,,0.00,577.00,VWS V14.01,2013-05-21 15:08:00,
2013-05-21 11:13:00,79.2,70.6,29.92,South,191,2.0,6.0,75,0.00,,,0.00,603.00,VWS V14.01,2013-05-21 15:13:00,
2013-05-21 11:18:00,79.7,71.9,29.92,SE,125,2.0,4.0,77,0.00,,,0.00,635.00,VWS V14.01,2013-05-21 15:18:00,
2013-05-21 11:23:00,80.0,71.0,29.92,SSW,209,3.0,7.0,74,0.00,,,0.00,677.00,VWS V14.01,2013-05-21 15:23:00,
2013-05-21 11:28:00,80.3,71.3,29.92,SSW,204,0.0,5.0,74,0.00,,,0.00,714.00,VWS V14.01,2013-05-21 15:28:00,
2013-05-21 11:33:00,80.5,70.7,29.92,South,189,0.0,3.0,72,0.00,,,0.00,765.00,VWS V14.01,2013-05-21 15:33:00,
2013-05-21 11:38:00,80.5,70.7,29.92,SE,127,0.0,5.0,72,0.00,,,0.00,788.00,VWS V14.01,2013-05-21 15:38:00,
2013-05-21 11:43:00,81.0,70.7,29.91,South,178,0.0,5.0,71,0.00,,,0.00,789.00,VWS V14.01,2013-05-21 15:43:00,
2013-05-21 11:49:00,80.9,70.2,29.91,SSW,194,0.0,3.0,70,0.00,,,0.00,768.00,VWS V14.01,2013-05-21 15:49:00,
2013-05-21 11:54:00,81.2,71.7,29.92,South,187,1.0,3.0,73,0.00,,,0.00,745.00,VWS V14.01,2013-05-21 15:54:00,
2013-05-21 11:59:00,81.4,71.5,29.92,SSW,192,0.0,6.0,72,0.00,,,0.00,740.00,VWS V14.01,2013-05-21 15:59:00,
2013-05-21 12:04:00,81.5,70.8,29.92,SSW,196,7.0,7.0,70,0.00,,,0.00,759.00,VWS V14.01,2013-05-21 16:04:00,
2013-05-21 12:09:00,81.9,72.0,29.91,South,187,1.0,7.0,72,0.00,,,0.00,791.00,VWS V14.01,2013-05-21 16:09:00,
2013-05-21 12:14:00,81.8,71.1,29.91,SSE,147,0.0,4.0,70,0.00,,,0.00,831.00,VWS V14.01,2013-05-21 16:14:00,
2013-05-21 12:19:00,81.8,70.6,29.91,SSE,149,1.0,3.0,69,0.00,,,0.00,860.00,VWS V14.01,2013-05-21 16:19:00,
2013-05-21 12:24:00,82.1,70.9,29.91,South,171,1.0,5.0,69,0.00,,,0.00,867.00,VWS V14.01,2013-05-21 16:24:00,
2013-05-21 12:29:00,82.3,72.0,29.91,SSW,200,1.0,4.0,71,0.00,,,0.00,872.00,VWS V14.01,2013-05-21 16:29:00,
2013-05-21 12:34:00,82.3,71.5,29.91,South,176,0.0,6.0,70,0.00,,,0.00,898.00,VWS V14.01,2013-05-21 16:34:00,
2013-05-21 12:40:00,82.4,70.8,29.91,SSW,203,3.0,6.0,68,0.00,,,0.00,882.00,VWS V14.01,2013-05-21 16:40:00,
2013-05-21 12:45:00,82.6,71.0,29.91,SSE,150,2.0,4.0,68,0.00,,,0.00,882.00,VWS V14.01,2013-05-21 16:45:00,
2013-05-21 12:50:00,83.1,71.4,29.91,NW,311,1.0,4.0,68,0.00,,,0.00,895.00,VWS V14.01,2013-05-21 16:50:00,
2013-05-21 12:55:00,83.3,71.6,29.91,ESE,114,0.0,3.0,68,0.00,,,0.00,888.00,VWS V14.01,2013-05-21 16:55:00,
2013-05-21 13:00:00,83.6,71.9,29.90,WNW,286,0.0,4.0,68,0.00,,,0.00,907.00,VWS V14.01,2013-05-21 17:00:00,
2013-05-21 13:05:00,83.8,72.1,29.90,SSW,205,1.0,6.0,68,0.00,,,0.00,925.00,VWS V14.01,2013-05-21 17:05:00,
2013-05-21 13:10:00,84.0,72.3,29.89,SSW,198,4.0,4.0,68,0.00,,,0.00,893.00,VWS V14.01,2013-05-21 17:10:00,
2013-05-21 13:15:00,84.1,72.4,29.89,SSE,150,2.0,7.0,68,0.00,,,0.00,896.00,VWS V14.01,2013-05-21 17:15:00,
2013-05-21 13:20:00,84.0,71.4,29.89,South,180,4.0,4.0,66,0.00,,,0.00,902.00,VWS V14.01,2013-05-21 17:20:00,
2013-05-21 13:25:00,84.4,73.1,29.89,South,184,0.0,4.0,69,0.00,,,0.00,916.00,VWS V14.01,2013-05-21 17:25:00,
2013-05-21 13:30:00,85.1,72.5,29.89,South,186,0.0,1.0,66,0.00,,,0.00,983.00,VWS V14.01,2013-05-21 17:30:00,
2013-05-21 13:35:00,85.4,73.2,29.88,SSW,206,7.0,7.0,67,0.00,,,0.00,933.00,VWS V14.01,2013-05-21 17:35:00,
2013-05-21 13:40:00,85.0,71.5,29.88,SSW,208,1.0,1.0,64,0.00,,,0.00,909.00,VWS V14.01,2013-05-21 17:40:00,
2013-05-21 13:45:00,85.0,71.9,29.88,SE,140,3.0,6.0,65,0.00,,,0.00,900.00,VWS V14.01,2013-05-21 17:45:00,
2013-05-21 13:51:00,85.2,73.0,29.88,SSW,206,8.0,8.0,67,0.00,,,0.00,902.00,VWS V14.01,2013-05-21 17:51:00,
2013-05-21 13:56:00,85.3,73.6,29.88,SSW,194,4.0,4.0,68,0.00,,,0.00,896.00,VWS V14.01,2013-05-21 17:56:00,
2013-05-21 14:01:00,85.1,73.4,29.87,WSW,244,0.0,1.0,68,0.00,,,0.00,909.00,VWS V14.01,2013-05-21 18:01:00,
2013-05-21 14:06:00,85.6,72.9,29.87,SSW,195,3.0,7.0,66,0.00,,,0.00,911.00,VWS V14.01,2013-05-21 18:06:00,
2013-05-21 14:11:00,85.5,72.8,29.87,SSW,200,5.0,7.0,66,0.00,,,0.00,907.00,VWS V14.01,2013-05-21 18:11:00,
2013-05-21 14:16:00,85.3,72.7,29.87,SSW,192,1.0,6.0,66,0.00,,,0.00,898.00,VWS V14.01,2013-05-21 18:16:00,
2013-05-21 14:21:00,85.4,71.8,29.87,SW,219,5.0,5.0,64,0.00,,,0.00,875.00,VWS V14.01,2013-05-21 18:21:00,
2013-05-21 14:26:00,85.7,72.6,29.86,SE,141,3.0,6.0,65,0.00,,,0.00,882.00,VWS V14.01,2013-05-21 18:26:00,
2013-05-21 14:31:00,85.6,72.5,29.86,SSE,157,0.0,2.0,65,0.00,,,0.00,870.00,VWS V14.01,2013-05-21 18:31:00,
2013-05-21 14:37:00,85.8,72.2,29.86,SE,144,3.0,5.0,64,0.00,,,0.00,867.00,VWS V14.01,2013-05-21 18:37:00,
2013-05-21 14:42:00,86.0,72.4,29.86,SSE,152,0.0,1.0,64,0.00,,,0.00,863.00,VWS V14.01,2013-05-21 18:42:00,
2013-05-21 14:47:00,86.3,72.2,29.86,SSW,194,3.0,5.0,63,0.00,,,0.00,865.00,VWS V14.01,2013-05-21 18:47:00,
2013-05-21 14:52:00,86.3,72.7,29.86,South,181,3.0,8.0,64,0.00,,,0.00,856.00,VWS V14.01,2013-05-21 18:52:00,
2013-05-21 14:57:00,86.3,73.2,29.86,South,184,0.0,2.0,65,0.00,,,0.00,840.00,VWS V14.01,2013-05-21 18:57:00,
2013-05-21 15:02:00,86.5,72.4,29.86,SW,230,1.0,11.0,63,0.00,,,0.00,835.00,VWS V14.01,2013-05-21 19:02:00,
2013-05-21 15:07:00,86.7,74.9,29.86,SSW,194,0.0,1.0,68,0.00,,,0.00,831.00,VWS V14.01,2013-05-21 19:07:00,
2013-05-21 15:12:00,86.7,72.6,29.85,South,175,0.0,7.0,63,0.00,,,0.00,840.00,VWS V14.01,2013-05-21 19:12:00,
2013-05-21 15:18:00,86.7,73.1,29.85,SE,134,3.0,8.0,64,0.00,,,0.00,807.00,VWS V14.01,2013-05-21 19:18:00,
2013-05-21 15:23:00,86.6,72.0,29.85,SE,141,2.0,3.0,62,0.00,,,0.00,788.00,VWS V14.01,2013-05-21 19:23:00,
2013-05-21 15:28:00,86.5,73.3,29.85,SSE,163,1.0,6.0,65,0.00,,,0.00,780.00,VWS V14.01,2013-05-21 19:28:00,
2013-05-21 15:33:00,86.7,74.4,29.85,SW,215,6.0,9.0,67,0.00,,,0.00,779.00,VWS V14.01,2013-05-21 19:33:00,
2013-05-21 15:38:00,86.6,73.4,29.84,SSE,152,0.0,6.0,65,0.00,,,0.00,761.00,VWS V14.01,2013-05-21 19:38:00,
2013-05-21 15:43:00,86.7,73.5,29.83,South,176,4.0,7.0,65,0.00,,,0.00,759.00,VWS V14.01,2013-05-21 19:43:00,
2013-05-21 15:48:00,86.8,74.1,29.84,SSE,166,2.0,6.0,66,0.00,,,0.00,758.00,VWS V14.01,2013-05-21 19:48:00,
2013-05-21 15:53:00,87.0,74.3,29.84,SSW,195,5.0,7.0,66,0.00,,,0.00,782.00,VWS V14.01,2013-05-21 19:53:00,
2013-05-21 15:58:00,86.7,74.0,29.84,South,180,4.0,6.0,66,0.00,,,0.00,735.00,VWS V14.01,2013-05-21 19:58:00,
2013-05-21 16:04:00,86.5,73.8,29.83,South,184,0.0,9.0,66,0.00,,,0.00,584.00,VWS V14.01,2013-05-21 20:04:00,
2013-05-21 16:09:00,86.5,73.3,29.83,SSE,148,0.0,7.0,65,0.00,,,0.00,714.00,VWS V14.01,2013-05-21 20:09:00,
2013-05-21 16:14:00,86.6,73.9,29.83,South,180,3.0,7.0,66,0.00,,,0.00,645.00,VWS V14.01,2013-05-21 20:14:00,
2013-05-21 16:19:00,86.6,73.0,29.83,SSE,147,4.0,12.0,64,0.00,,,0.00,700.00,VWS V14.01,2013-05-21 20:19:00,
2013-05-21 16:24:00,86.5,72.9,29.82,SSW,192,3.0,8.0,64,0.00,,,0.00,633.00,VWS V14.01,2013-05-21 20:24:00,
2013-05-21 16:29:00,86.5,73.3,29.83,South,189,4.0,9.0,65,0.00,,,0.00,387.00,VWS V14.01,2013-05-21 20:29:00,
2013-05-21 16:34:00,86.2,73.5,29.83,SSE,168,5.0,8.0,66,0.00,,,0.00,397.00,VWS V14.01,2013-05-21 20:34:00,
2013-05-21 16:39:00,85.9,73.2,29.83,SSE,155,0.0,9.0,66,0.00,,,0.00,487.00,VWS V14.01,2013-05-21 20:39:00,
2013-05-21 16:45:00,85.8,73.6,29.83,SE,141,2.0,10.0,67,0.00,,,0.00,591.00,VWS V14.01,2013-05-21 20:45:00,
2013-05-21 16:50:00,86.0,74.7,29.83,South,173,7.0,9.0,69,0.00,,,0.00,540.00,VWS V14.01,2013-05-21 20:50:00,
2013-05-21 16:55:00,86.2,74.8,29.82,SE,138,4.0,7.0,69,0.00,,,0.00,478.00,VWS V14.01,2013-05-21 20:55:00,
2013-05-21 17:00:00,86.0,74.2,29.82,SE,142,4.0,11.0,68,0.00,,,0.00,427.00,VWS V14.01,2013-05-21 21:00:00,
2013-05-21 17:05:00,85.9,73.7,29.82,SSE,150,2.0,10.0,67,0.00,,,0.00,478.00,VWS V14.01,2013-05-21 21:05:00,
2013-05-21 17:10:00,85.7,73.9,29.83,SSW,213,7.0,12.0,68,0.00,,,0.00,483.00,VWS V14.01,2013-05-21 21:10:00,
2013-05-21 17:15:00,85.5,74.2,29.82,South,183,2.0,7.0,69,0.00,,,0.00,401.00,VWS V14.01,2013-05-21 21:15:00,
2013-05-21 17:20:00,85.4,74.1,29.82,South,187,2.0,9.0,69,0.00,,,0.00,441.00,VWS V14.01,2013-05-21 21:20:00,
2013-05-21 17:25:00,85.2,73.4,29.82,SSW,200,2.0,8.0,68,0.00,,,0.00,411.00,VWS V14.01,2013-05-21 21:25:00,
2013-05-21 17:30:00,85.0,73.7,29.82,South,169,1.0,8.0,69,0.00,,,0.00,362.00,VWS V14.01,2013-05-21 21:30:00,
2013-05-21 17:35:00,84.7,73.4,29.82,South,179,2.0,9.0,69,0.00,,,0.00,348.00,VWS V14.01,2013-05-21 21:35:00,
2013-05-21 17:40:00,84.5,73.7,29.82,SSW,195,7.0,9.0,70,0.00,,,0.00,336.00,VWS V14.01,2013-05-21 21:40:00,
2013-05-21 17:45:00,84.4,74.0,29.82,South,169,0.0,5.0,71,0.00,,,0.00,369.00,VWS V14.01,2013-05-21 21:45:00,
2013-05-21 17:51:00,84.3,73.9,29.82,South,184,4.0,4.0,71,0.00,,,0.00,478.00,VWS V14.01,2013-05-21 21:51:00,
2013-05-21 17:56:00,84.4,73.6,29.82,SSE,160,4.0,7.0,70,0.00,,,0.00,408.00,VWS V14.01,2013-05-21 21:56:00,
2013-05-21 18:01:00,84.4,74.0,29.81,South,180,2.0,9.0,71,0.00,,,0.00,399.00,VWS V14.01,2013-05-21 22:01:00,
2013-05-21 18:06:00,84.3,73.9,29.81,SSW,205,3.0,6.0,71,0.00,,,0.00,352.00,VWS V14.01,2013-05-21 22:06:00,
2013-05-21 18:11:00,84.3,73.9,29.81,South,176,2.0,6.0,71,0.00,,,0.00,258.00,VWS V14.01,2013-05-21 22:11:00,
2013-05-21 18:16:00,84.1,73.7,29.81,South,184,4.0,4.0,71,0.00,,,0.00,225.00,VWS V14.01,2013-05-21 22:16:00,
2013-05-21 18:21:00,83.8,73.0,29.81,South,184,4.0,6.0,70,0.00,,,0.00,176.00,VWS V14.01,2013-05-21 22:21:00,
2013-05-21 18:26:00,83.5,73.1,29.81,South,182,1.0,3.0,71,0.00,,,0.00,220.00,VWS V14.01,2013-05-21 22:26:00,
2013-05-21 18:31:00,83.1,72.7,29.81,South,177,4.0,7.0,71,0.00,,,0.00,211.00,VWS V14.01,2013-05-21 22:31:00,
2013-05-21 18:36:00,82.9,72.9,29.81,SSE,163,4.0,8.0,72,0.00,,,0.00,206.00,VWS V14.01,2013-05-21 22:36:00,
2013-05-21 18:42:00,82.6,72.7,29.81,SSE,164,2.0,8.0,72,0.00,,,0.00,162.00,VWS V14.01,2013-05-21 22:42:00,
2013-05-21 18:47:00,82.3,72.4,29.81,SSE,159,2.0,8.0,72,0.00,,,0.00,155.00,VWS V14.01,2013-05-21 22:47:00,
2013-05-21 18:52:00,82.1,72.6,29.81,South,190,0.0,5.0,73,0.00,,,0.00,134.00,VWS V14.01,2013-05-21 22:52:00,
2013-05-21 18:57:00,81.9,72.4,29.81,South,180,5.0,6.0,73,0.00,,,0.00,139.00,VWS V14.01,2013-05-21 22:57:00,
2013-05-21 19:02:00,81.7,72.2,29.81,South,186,2.0,5.0,73,0.00,,,0.00,148.00,VWS V14.01,2013-05-21 23:02:00,
2013-05-21 19:07:00,81.6,72.5,29.81,South,169,3.0,4.0,74,0.00,,,0.00,197.00,VWS V14.01,2013-05-21 23:07:00,
2013-05-21 19:12:00,81.6,72.5,29.81,South,188,7.0,7.0,74,0.00,,,0.00,192.00,VWS V14.01,2013-05-21 23:12:00,
2013-05-21 19:17:00,81.7,72.6,29.81,South,185,3.0,5.0,74,0.00,,,0.00,156.00,VWS V14.01,2013-05-21 23:17:00,
2013-05-21 19:22:00,81.7,72.6,29.81,SSW,213,6.0,7.0,74,0.00,,,0.00,134.00,VWS V14.01,2013-05-21 23:22:00,
2013-05-21 19:27:00,81.6,72.5,29.81,SSE,157,1.0,5.0,74,0.00,,,0.00,118.00,VWS V14.01,2013-05-21 23:27:00,
2013-05-21 19:32:00,81.5,72.4,29.81,SSE,168,4.0,7.0,74,0.00,,,0.00,86.00,VWS V14.01,2013-05-21 23:32:00,
2013-05-21 19:37:00,81.3,72.2,29.80,SSE,148,2.0,6.0,74,0.00,,,0.00,74.00,VWS V14.01,2013-05-21 23:37:00,
2013-05-21 19:43:00,81.0,71.9,29.81,South,177,3.0,7.0,74,0.00,,,0.00,65.00,VWS V14.01,2013-05-21 23:43:00,
2013-05-21 19:48:00,80.8,71.7,29.81,South,186,0.0,5.0,74,0.00,,,0.00,47.00,VWS V14.01,2013-05-21 23:48:00,
2013-05-21 19:53:00,80.6,71.9,29.81,SSE,163,4.0,6.0,75,0.00,,,0.00,30.00,VWS V14.01,2013-05-21 23:53:00,
2013-05-21 19:58:00,80.3,71.7,29.81,South,184,3.0,5.0,75,0.00,,,0.00,19.00,VWS V14.01,2013-05-21 23:58:00,
2013-05-21 20:03:00,80.0,71.4,29.81,SSW,197,0.0,4.0,75,0.00,,,0.00,14.00,VWS V14.01,2013-05-22 00:03:00,
2013-05-21 20:08:00,79.8,71.6,29.80,SSE,165,0.0,6.0,76,0.00,,,0.00,11.00,VWS V14.01,2013-05-22 00:08:00,
2013-05-21 20:13:00,79.5,71.3,29.80,South,175,3.0,8.0,76,0.00,,,0.00,7.00,VWS V14.01,2013-05-22 00:13:00,
2013-05-21 20:18:00,79.2,71.4,29.80,SSW,192,3.0,10.0,77,0.00,,,0.00,0.00,VWS V14.01,2013-05-22 00:18:00,
2013-05-21 20:23:00,79.0,71.2,29.81,SSW,205,2.0,6.0,77,0.00,,,0.00,0.00,VWS V14.01,2013-05-22 00:23:00,
2013-05-21 20:28:00,78.8,71.0,29.81,SSW,194,0.0,6.0,77,0.00,,,0.00,0.00,VWS V14.01,2013-05-22 00:28:00,
2013-05-21 20:33:00,78.7,71.3,29.80,South,186,2.0,6.0,78,0.00,,,0.00,0.00,VWS V14.01,2013-05-22 00:33:00,
2013-05-21 20:38:00,78.6,71.2,29.81,SSW,198,1.0,6.0,78,0.00,,,0.00,0.00,VWS V14.01,2013-05-22 00:38:00,
2013-05-21 20:44:00,78.4,71.0,29.81,South,191,0.0,4.0,78,0.00,,,0.00,0.00,VWS V14.01,2013-05-22 00:44:00,
2013-05-21 20:49:00,78.2,71.2,29.81,South,191,3.0,6.0,79,0.00,,,0.00,0.00,VWS V14.01,2013-05-22 00:49:00,
2013-05-21 20:54:00,78.0,71.0,29.81,SSW,202,0.0,5.0,79,0.00,,,0.00,0.00,VWS V14.01,2013-05-22 00:54:00,
2013-05-21 20:59:00,77.9,70.9,29.81,SSW,202,2.0,4.0,79,0.00,,,0.00,0.00,VWS V14.01,2013-05-22 00:59:00,
2013-05-21 21:04:00,77.7,71.0,29.81,SSW,202,0.0,1.0,80,0.00,,,0.00,0.00,VWS V14.01,2013-05-22 01:04:00,
2013-05-21 21:09:00,77.5,70.8,29.82,SSW,202,0.0,1.0,80,0.00,,,0.00,0.00,VWS V14.01,2013-05-22 01:09:00,
2013-05-21 21:14:00,77.4,70.8,29.81,SSW,202,0.0,1.0,80,0.00,,,0.00,0.00,VWS V14.01,2013-05-22 01:14:00,
2013-05-21 21:19:00,77.2,70.9,29.82,SSW,202,0.0,3.0,81,0.00,,,0.00,0.00,VWS V14.01,2013-05-22 01:19:00,
2013-05-21 21:24:00,76.9,71.0,29.82,South,182,0.0,4.0,82,0.00,,,0.00,0.00,VWS V14.01,2013-05-22 01:24:00,
2013-05-21 21:29:00,76.8,70.9,29.82,South,186,0.0,1.0,82,0.00,,,0.00,0.00,VWS V14.01,2013-05-22 01:29:00,
2013-05-21 21:34:00,76.6,70.7,29.82,South,186,0.0,1.0,82,0.00,,,0.00,0.00,VWS V14.01,2013-05-22 01:34:00,
2013-05-21 21:40:00,76.4,70.9,29.82,South,186,0.0,3.0,83,0.00,,,0.00,0.00,VWS V14.01,2013-05-22 01:40:00,
2013-05-21 21:45:00,76.2,70.7,29.82,South,186,0.0,1.0,83,0.00,,,0.00,0.00,VWS V14.01,2013-05-22 01:45:00,
2013-05-21 21:50:00,76.1,70.9,29.82,South,178,0.0,2.0,84,0.00,,,0.00,0.00,VWS V14.01,2013-05-22 01:50:00,
2013-05-21 21:55:00,75.9,70.7,29.83,South,177,0.0,4.0,84,0.00,,,0.00,0.00,VWS V14.01,2013-05-22 01:55:00,
2013-05-21 22:00:00,75.8,71.0,29.83,South,187,0.0,2.0,85,0.00,,,0.00,0.00,VWS V14.01,2013-05-22 02:00:00,
2013-05-21 22:05:00,75.7,70.9,29.83,South,188,0.0,2.0,85,0.00,,,0.00,0.00,VWS V14.01,2013-05-22 02:05:00,
2013-05-21 22:10:00,75.6,70.8,29.83,South,188,0.0,4.0,85,0.00,,,0.00,0.00,VWS V14.01,2013-05-22 02:10:00,
2013-05-21 22:15:00,75.5,70.7,29.83,SSW,203,0.0,4.0,85,0.00,,,0.00,0.00,VWS V14.01,2013-05-22 02:15:00,
2013-05-21 22:20:00,75.4,70.6,29.84,SSW,204,0.0,3.0,85,0.00,,,0.00,0.00,VWS V14.01,2013-05-22 02:20:00,
2013-05-21 22:25:00,75.3,70.8,29.84,SSW,204,0.0,0.0,86,0.00,,,0.00,0.00,VWS V14.01,2013-05-22 02:25:00,
2013-05-21 22:30:00,75.2,70.7,29.84,SSW,202,0.0,0.0,86,0.00,,,0.00,0.00,VWS V14.01,2013-05-22 02:30:00,
2013-05-21 22:35:00,75.0,70.5,29.83,SSW,202,0.0,0.0,86,0.00,,,0.00,0.00,VWS V14.01,2013-05-22 02:35:00,
2013-05-21 22:40:00,74.9,70.4,29.83,SSW,202,0.0,1.0,86,0.00,,,0.00,0.00,VWS V14.01,2013-05-22 02:40:00,
2013-05-21 22:46:00,74.8,70.7,29.83,SSW,204,0.0,0.0,87,0.00,,,0.00,0.00,VWS V14.01,2013-05-22 02:46:00,
2013-05-21 22:51:00,74.8,70.7,29.83,SSW,204,0.0,0.0,87,0.00,,,0.00,0.00,VWS V14.01,2013-05-22 02:51:00,
2013-05-21 22:56:00,74.6,70.5,29.83,SSW,205,0.0,1.0,87,0.00,,,0.00,0.00,VWS V14.01,2013-05-22 02:56:00,
2013-05-21 23:01:00,74.5,70.4,29.83,SSW,205,0.0,0.0,87,0.00,,,0.00,0.00,VWS V14.01,2013-05-22 03:01:00,
2013-05-21 23:06:00,74.4,70.3,29.83,SSW,205,0.0,0.0,87,0.00,,,0.00,0.00,VWS V14.01,2013-05-22 03:06:00,
2013-05-21 23:11:00,74.3,70.5,29.83,SSW,205,0.0,1.0,88,0.00,,,0.00,0.00,VWS V14.01,2013-05-22 03:11:00,
2013-05-21 23:16:00,74.2,70.4,29.83,SSW,204,0.0,0.0,88,0.00,,,0.00,0.00,VWS V14.01,2013-05-22 03:16:00,
2013-05-21 23:21:00,74.1,70.3,29.83,SSW,204,0.0,1.0,88,0.00,,,0.00,0.00,VWS V14.01,2013-05-22 03:21:00,
2013-05-21 23:26:00,74.0,70.2,29.83,SSW,204,0.0,0.0,88,0.00,,,0.00,0.00,VWS V14.01,2013-05-22 03:26:00,
2013-05-21 23:31:00,73.9,70.1,29.83,SSW,204,0.0,0.0,88,0.00,,,0.00,0.00,VWS V14.01,2013-05-22 03:31:00,
2013-05-21 23:36:00,73.8,70.0,29.83,SSW,203,0.0,0.0,88,0.00,,,0.00,0.00,VWS V14.01,2013-05-22 03:36:00,
2013-05-21 23:42:00,73.7,70.3,29.83,SSW,204,0.0,0.0,89,0.00,,,0.00,0.00,VWS V14.01,2013-05-22 03:42:00,
2013-05-21 23:47:00,73.6,70.2,29.83,SSW,204,0.0,0.0,89,0.00,,,0.00,0.00,VWS V14.01,2013-05-22 03:47:00,
2013-05-21 23:52:00,73.4,70.0,29.83,SSW,204,0.0,0.0,89,0.00,,,0.00,0.00,VWS V14.01,2013-05-22 03:52:00,
2013-05-21 23:57:00,73.3,69.9,29.83,SSW,203,0.0,0.0,89,0.00,,,0.00,0.00,VWS V14.01,2013-05-22 03:57:00,